Location: Newark
(47.5000°N, 4.6167°E)
Time: 05:24:32
(UTC+00:00)

X-37B - Pass Details

Date: 14 December 2021
Orbit: 334 x 337 km, 45.0° (Epoch: 11 January)

Event Time Altitude Azimuth Distance (km) Brightness Sun altitude
Rises 16:24:18 0° 256° (WSW) 2,103 6.2 -5.7°
Reaches altitude 10° 16:26:20 10° 251° (WSW) 1,267 4.9 -6.0°
Maximum altitude 16:29:05 49° 175° (S) 443 1.1 -6.4°
Drops below altitude 10° 16:31:50 10° 99° (E) 1,267 2.7 -6.8°
Enters shadow 16:32:34 - 96° (E) 1,564 3.1 -6.9°
